Weather History for Pinedale, WY

Change the Weather History Date:

Wednesday, September 3, 2014

  Actual Average (KBPI) Record (KBPI)
Temperature  
Mean Temperature 55 °F 54 °F  
Max Temperature 73 °F 73 °F 85 °F (2013)
Min Temperature 37 °F 36 °F 26 °F (1993)
Degree Days  
Heating Degree Days 10 11  
Month to date heating degree days 31  
Since 1 July heating degree days 324  
Cooling Degree Days 0 0  
Month to date cooling degree days 0  
Year to date cooling degree days 35  
Growing Degree Days 5 (Base 50)    
Moisture  
Dew Point 33 °F    
Average Humidity 51    
Maximum Humidity 93    
Minimum Humidity 20    
Precipitation  
Precipitation 0.00 in 0.03 in 0.37 in (1987)
Month to date precipitation 0.08  
Year to date precipitation 4.74  
Sea Level Pressure  
Sea Level Pressure 30.00 in    
Wind  
Wind Speed 6 mph (WNW)    
Max Wind Speed 25 mph    
Max Gust Speed 31 mph    
Visibility 10 miles    
Events      
T = Trace of Precipitation, MM = Missing Value Source: NWS Daily Summary

Daily Weather History Graph

Daily Weather History Graph

Search for Another Location

Airport:

Trip Planner

Search our weather history database for the weather conditions in past years. The results will help you decide how hot, cold, wet, or windy it might be!

Date:

Astronomy

Sep. 03, 2014 Rise Set
Actual Time 6:46 AM MDT 7:50 PM MDT
Civil Twilight 6:17 AM MDT 8:19 PM MDT
Nautical Twilight 5:42 AM MDT 8:53 PM MDT
Astronomical Twilight 5:06 AM MDT 9:29 PM MDT
Moon 3:39 PM MDT (9/3) 12:38 AM MDT (9/3)
Length of Visible Light 14h 01m
Length of Day
13h 04m
Waxing Gibbous, 64% of the Moon is Illuminated
Sep 3
Waxing Gibbous
Sep 8
Full
Sep 15
Last Quarter
Sep 24
New
Oct 1
First Quarter

Hourly Weather History & Observations

Time (MDT) Temp. Windchill Dew Point Humidity Pressure Visibility Wind Dir Wind Speed Gust Speed Precip Events Conditions
12:15 AM 42.8 °F - 35.6 °F 76% 30.06 in 10.0 mi Calm Calm - N/A   Scattered Clouds
12:35 AM 42.8 °F - 35.6 °F 76% 30.05 in 10.0 mi Calm Calm - N/A   Clear
12:55 AM 41.0 °F - 35.6 °F 81% 30.05 in 10.0 mi Calm Calm - N/A   Clear
1:15 AM 37.4 °F 34.9 °F 35.6 °F 93% 30.04 in 10.0 mi West 3.5 mph - N/A   Clear
1:35 AM 37.4 °F 32.8 °F 35.6 °F 93% 30.03 in 10.0 mi West 5.8 mph - N/A   Scattered Clouds
1:55 AM 39.2 °F 35.0 °F 35.6 °F 87% 30.01 in 10.0 mi West 5.8 mph - N/A   Scattered Clouds
2:15 AM 42.8 °F 41.1 °F 35.6 °F 76% 30.01 in 10.0 mi WNW 3.5 mph - N/A   Mostly Cloudy
2:35 AM 42.8 °F 39.3 °F 35.6 °F 76% 30.00 in 10.0 mi NW 5.8 mph - N/A   Mostly Cloudy
2:55 AM 42.8 °F 41.1 °F 35.6 °F 76% 29.99 in 10.0 mi WNW 3.5 mph - N/A   Mostly Cloudy
3:15 AM 42.8 °F 39.3 °F 35.6 °F 76% 29.98 in 10.0 mi WNW 5.8 mph - N/A   Scattered Clouds
3:35 AM 41.0 °F - 35.6 °F 81% 30.00 in 10.0 mi Calm Calm - N/A   Mostly Cloudy
3:55 AM 44.6 °F 37.8 °F 35.6 °F 71% 30.00 in 10.0 mi NNW 15.0 mph - N/A   Mostly Cloudy
4:15 AM 44.6 °F - 37.4 °F 76% 29.98 in 10.0 mi Calm Calm - N/A   Mostly Cloudy
4:35 AM 42.8 °F - 37.4 °F 81% 29.99 in 10.0 mi Calm Calm - N/A   Mostly Cloudy
4:55 AM 44.6 °F 40.7 °F 41.0 °F 87% 29.99 in 10.0 mi NNW 6.9 mph - N/A   Mostly Cloudy
5:15 AM 42.8 °F 41.1 °F 39.2 °F 87% 29.98 in 10.0 mi SSW 3.5 mph - N/A   Mostly Cloudy
5:35 AM 42.8 °F 41.1 °F 41.0 °F 93% 29.99 in 10.0 mi NW 3.5 mph - N/A   Scattered Clouds
5:55 AM 41.0 °F 39.0 °F 37.4 °F 87% 29.98 in 10.0 mi ESE 3.5 mph - N/A   Clear
6:15 AM 41.0 °F 37.1 °F 39.2 °F 93% 29.98 in 10.0 mi ESE 5.8 mph - N/A   Scattered Clouds
6:35 AM 42.8 °F 39.3 °F 39.2 °F 87% 29.98 in 10.0 mi ESE 5.8 mph - N/A   Scattered Clouds
6:55 AM 41.0 °F - 39.2 °F 93% 29.98 in 10.0 mi Calm Calm - N/A   Clear
7:15 AM 39.2 °F - 37.4 °F 93% 29.99 in 10.0 mi Calm Calm - N/A   Clear
7:55 AM 39.2 °F 37.0 °F 37.4 °F 93% 30.00 in 10.0 mi West 3.5 mph - N/A   Clear
8:15 AM 46.4 °F - 41.0 °F 81% 30.00 in 10.0 mi Calm Calm - N/A   Clear
8:35 AM 48.2 °F - 39.2 °F 71% 30.00 in 10.0 mi Calm Calm - N/A   Clear
8:55 AM 51.8 °F - 39.2 °F 62% 29.99 in 10.0 mi Calm Calm - N/A   Clear
9:15 AM 55.4 °F - 37.4 °F 51% 30.00 in 10.0 mi Calm Calm - N/A   Clear
9:35 AM 57.2 °F - 35.6 °F 44% 30.00 in 10.0 mi ENE 3.5 mph - N/A   Clear
9:55 AM 60.8 °F - 37.4 °F 42% 30.00 in 10.0 mi East 3.5 mph - N/A   Clear
10:15 AM 62.6 °F - 33.8 °F 34% 30.00 in 10.0 mi Calm Calm - N/A   Clear
10:35 AM 64.4 °F - 35.6 °F 34% 29.99 in 10.0 mi SW 6.9 mph - N/A   Clear
11:15 AM 68.0 °F - 33.8 °F 28% 29.99 in 10.0 mi WSW 8.1 mph - N/A   Clear
11:35 AM 69.8 °F - 33.8 °F 27% 29.99 in 10.0 mi WSW 10.4 mph 18.4 mph N/A   Clear
11:55 AM 71.6 °F - 33.8 °F 25% 29.98 in 10.0 mi WSW 6.9 mph 18.4 mph N/A   Clear
12:15 PM 71.6 °F - 32.0 °F 23% 29.98 in 10.0 mi West 9.2 mph 17.3 mph N/A   Clear
12:35 PM 71.6 °F - 33.8 °F 25% 29.97 in 10.0 mi NW 11.5 mph 17.3 mph N/A   Clear
12:55 PM 73.4 °F - 32.0 °F 22% 29.97 in 7.0 mi West 10.4 mph 19.6 mph N/A   Scattered Clouds
1:15 PM 73.4 °F - 30.2 °F 20% 29.97 in 7.0 mi WSW 17.3 mph 27.6 mph N/A   Scattered Clouds
1:35 PM 71.6 °F - 32.0 °F 23% 29.97 in 10.0 mi West 12.7 mph 25.3 mph N/A   Scattered Clouds
1:55 PM 73.4 °F - 32.0 °F 22% 29.97 in 10.0 mi WNW 21.9 mph 29.9 mph N/A   Scattered Clouds
2:15 PM 73.4 °F - 32.0 °F 22% 29.97 in 10.0 mi West 19.6 mph 29.9 mph N/A   Scattered Clouds
2:35 PM 71.6 °F - 32.0 °F 23% 29.97 in 10.0 mi WNW 24.2 mph 28.8 mph N/A   Clear
2:55 PM 71.6 °F - 32.0 °F 23% 29.97 in 10.0 mi WNW 18.4 mph 28.8 mph N/A   Scattered Clouds
3:15 PM 71.6 °F - 32.0 °F 23% 29.97 in 10.0 mi WNW 18.4 mph 28.8 mph N/A   Scattered Clouds
3:35 PM 71.6 °F - 32.0 °F 23% 29.97 in 10.0 mi West 23.0 mph 28.8 mph N/A   Clear
3:55 PM 71.6 °F - 32.0 °F 23% 29.97 in 10.0 mi WNW 20.7 mph 28.8 mph N/A   Clear
4:15 PM 71.6 °F - 32.0 °F 23% 29.98 in 10.0 mi West 20.7 mph 26.5 mph N/A   Clear
4:35 PM 71.6 °F - 32.0 °F 23% 29.98 in 10.0 mi West 16.1 mph 28.8 mph N/A   Clear
4:55 PM 71.6 °F - 30.2 °F 22% 29.99 in 7.0 mi West 18.4 mph 29.9 mph N/A   Clear
5:15 PM 69.8 °F - 30.2 °F 23% 29.99 in 10.0 mi West 20.7 mph 26.5 mph N/A   Clear
5:35 PM 69.8 °F - 30.2 °F 23% 30.00 in 10.0 mi West 24.2 mph 28.8 mph N/A   Clear
5:55 PM 68.0 °F - 28.4 °F 23% 30.00 in 10.0 mi West 25.3 mph 31.1 mph N/A   Clear
6:15 PM 68.0 °F - 28.4 °F 23% 30.01 in 10.0 mi West 24.2 mph 29.9 mph N/A   Clear
6:35 PM 68.0 °F - 30.2 °F 24% 30.01 in 10.0 mi WNW 13.8 mph 26.5 mph N/A   Clear
6:55 PM 64.4 °F - 28.4 °F 26% 30.01 in 10.0 mi WNW 17.3 mph 20.7 mph N/A   Clear
7:15 PM 62.6 °F - 28.4 °F 27% 30.01 in 10.0 mi WNW 15.0 mph 23.0 mph N/A   Clear
7:35 PM 60.8 °F - 26.6 °F 27% 30.02 in 10.0 mi WNW 12.7 mph 19.6 mph N/A   Clear
7:55 PM 55.4 °F - 26.6 °F 33% 30.03 in 10.0 mi WNW 6.9 mph - N/A   Clear
8:15 PM 51.8 °F - 30.2 °F 44% 30.04 in 10.0 mi NNW 4.6 mph - N/A   Clear
8:35 PM 53.6 °F - 23.0 °F 30% 30.05 in 10.0 mi NNW 9.2 mph - N/A   Clear
8:55 PM 48.2 °F - 23.0 °F 37% 30.04 in 10.0 mi NW 10.4 mph - N/A   Scattered Clouds
9:15 PM 46.4 °F 43.5 °F 28.4 °F 50% 30.05 in 10.0 mi West 5.8 mph - N/A   Mostly Cloudy
9:35 PM 44.6 °F 40.7 °F 26.6 °F 49% 30.05 in 10.0 mi WNW 6.9 mph - N/A   Mostly Cloudy
9:55 PM 44.6 °F 41.4 °F 21.2 °F 39% 30.06 in 10.0 mi West 5.8 mph - N/A   Scattered Clouds
10:15 PM 46.4 °F 44.3 °F 21.2 °F 37% 30.06 in 10.0 mi WNW 4.6 mph - N/A   Scattered Clouds
10:35 PM 42.8 °F 39.3 °F 28.4 °F 57% 30.05 in 10.0 mi NW 5.8 mph - N/A   Scattered Clouds
10:55 PM 42.8 °F 41.1 °F 23.0 °F 46% 30.06 in 10.0 mi WNW 3.5 mph - N/A   Clear
11:15 PM 41.0 °F 35.8 °F 26.6 °F 57% 30.05 in 10.0 mi NW 8.1 mph - N/A   Scattered Clouds
11:35 PM 41.0 °F 39.0 °F 24.8 °F 53% 30.07 in 10.0 mi West 3.5 mph - N/A   Scattered Clouds
11:55 PM 41.0 °F 39.0 °F 24.8 °F 53% 30.07 in 10.0 mi NW 3.5 mph - N/A   Scattered Clouds